User: anonymous   Login
Location: Unspecified
(0.0000°N, 0.0000°E)
Time: 19:51:19
(UTC+00:00)
Language:

STRELA 3 - Orbit

View from above orbital plane
View from above orbital plane
View from above satellite
View from above satellite

Ground track
Ground track

The orbit data is extracted from the following two-line orbital elements,

1 37153U 10043B   21026.25632124  .00000001  00000-0 -66991-4 0  9990
2 37153  82.4556 224.2073 0007839  39.9946 320.1716 12.40739203470381
Epoch (UTC): 26 January 2021 06:09:06
Eccentricity: 0.0007839
inclination: 82.4556°
perigee height: 1497 km
apogee height: 1509 km
right ascension of ascending node: 224.2073°
argument of perigee: 39.9946°
revolutions per day: 12.40739203
mean anomaly at epoch: 320.1716°
orbit number at epoch: 47038

The dashed part of the orbit path shows where the satellite is in the earth's shadow,  

DLR